User: anonymous   Login
Location: Unspecified
(0.0000°N, 0.0000°E)
Time: 23:05:25
(UTC+00:00)
Language:

LANDSAT 8 - Orbit

View from above orbital plane
View from above orbital plane
View from above satellite
View from above satellite

Ground track
Ground track

The orbit data is extracted from the following two-line orbital elements,

1 39084U 13008A   15061.18392339  .00000355  00000-0  88757-4 0  9999
2 39084 098.1897 132.6649 0001498 081.4390 278.6966 14.57121868109025
Epoch (UTC): 02 March 2015 04:24:50
Eccentricity: 0.0001498
inclination: 98.1897°
perigee height: 701 km
apogee height: 703 km
right ascension of ascending node: 132.6649°
argument of perigee: 81.4390°
revolutions per day: 14.57121868
mean anomaly at epoch: 278.6966°
orbit number at epoch: 10902

The dashed part of the orbit path shows where the satellite is in the earth's shadow,  

DLR